Simultaneous Nadir Overpasses (SNOs) Predictions

Prediction of SNOs between AQUA and METOP-A Satellite Orbit:

Table of predicted SNOs for the next 14.0 days since TLE Epoch: 2/8/2013
Index Date (AQUA) Time (AQUA) Lat,Lon (AQUA) SZA (AQUA ) Date (METOP-A) Time (METOP-A) Lat,Lon (METOP-A) SZA (METOP-A ) Distance(km) Time Diff (sec)
1 02/09/2013 16:07:59 -73.86, 112.10 91.55 02/09/2013 16:07:31 -73.88, 112.01 91.52 3.25 28
2 02/09/2013 16:57:28 73.95, -80.44 88.53 02/09/2013 16:58:09 73.96, -80.47 88.54 1.42 41
3 02/12/2013 11:42:13 -73.92, 178.44 92.42 02/12/2013 11:41:51 -73.89, 178.44 92.44 3.10 22
4 02/12/2013 12:31:41 73.95, -14.00 87.61 02/12/2013 12:32:29 73.96, -14.05 87.62 1.82 48
5 02/15/2013 06:26:48 73.34, 78.50 86.02 02/15/2013 06:25:41 73.29, 76.15 86.10 75.49 67
6 02/15/2013 07:16:25 -73.92,-115.12 93.36 02/15/2013 07:16:11 -73.90,-115.13 93.38 2.74 14
7 02/15/2013 08:05:53 73.96, 52.43 86.67 02/15/2013 08:06:49 73.97, 52.37 86.67 1.81 56
8 02/18/2013 02:01:05 73.72, 144.15 85.45 02/18/2013 01:59:53 73.65, 143.36 85.43 25.82 72
9 02/18/2013 02:50:35 -73.94, -48.69 94.33 02/18/2013 02:50:30 -73.91, -48.69 94.36 2.99 5
10 02/18/2013 03:40:03 73.98, 118.85 85.71 02/18/2013 03:41:08 73.97, 118.79 85.69 1.88 65
11 02/20/2013 21:35:17 73.85,-149.66 84.58 02/20/2013 21:34:09 73.86,-149.74 84.60 2.60 68
12 02/20/2013 22:24:44 -73.91, 17.84 95.38 02/20/2013 22:24:50 -73.92, 17.74 95.35 3.62 6




NCC Satellite Simultaneous Nadir Overpasses (SNOs) Prediction Service
